| time (UTC) | temp C | wind direction | speed KPH | gust KPH | rain 1hr cm | rain 24hr cm | rain mn cm | humidity % | barometer mb |
| 20260506145551 | 11 | 196 | 1.6 | 4.8 | 0.03 | 1.30 | 0.00 | 99 | 1005.8 |
| 20260506145021 | 11 | 179 | 3.2 | 9.7 | 0.03 | 1.30 | 0.00 | 99 | 1005.7 |
| 20260506144451 | 11 | 167 | 4.8 | 12.9 | 0.03 | 1.30 | 0.00 | 99 | 1005.6 |
| 20260506143922 | 11 | 182 | 6.4 | 9.7 | 0.03 | 1.30 | 0.00 | 99 | 1005.6 |
| 20260506143351 | 11 | 152 | 4.8 | 16.1 | 0.03 | 1.30 | 0.00 | 99 | 1005.6 |
| 20260506142821 | 11 | 181 | 6.4 | 14.5 | 0.03 | 1.30 | 0.00 | 99 | 1005.6 |
| 20260506142251 | 11 | 162 | 11.3 | 17.7 | 0.03 | 1.30 | 0.00 | 99 | 1005.6 |
| 20260506141721 | 11 | 182 | 6.4 | 11.3 | 0.03 | 1.30 | 0.00 | 99 | 1005.6 |
| 20260506141151 | 11 | 166 | 6.4 | 11.3 | 0.03 | 1.30 | 0.00 | 99 | 1005.6 |
| 20260506140621 | 11 | 161 | 4.8 | 9.7 | 0.00 | 1.30 | 0.00 | 99 | 1005.6 |
| 20260506140051 | 11 | 184 | 6.4 | 12.9 | 0.00 | 1.30 | 0.00 | 99 | 1005.5 |
| 20260506135521 | 11 | 193 | 4.8 | 12.9 | 0.00 | 1.30 | 0.00 | 99 | 1005.4 |
| 20260506134951 | 11 | 173 | 12.9 | 30.6 | 0.00 | 1.30 | 0.00 | 99 | 1005.4 |
| 20260506134421 | 11 | 160 | 8.0 | 17.7 | 0.00 | 1.30 | 0.00 | 99 | 1005.4 |
| 20260506133851 | 11 | 180 | 11.3 | 24.1 | 0.00 | 1.30 | 0.00 | 99 | 1005.4 |
| 20260506133321 | 11 | 164 | 3.2 | 11.3 | 0.03 | 1.30 | 0.00 | 99 | 1005.4 |
| 20260506132751 | 11 | 128 | 8.0 | 22.5 | 0.03 | 1.30 | 0.00 | 99 | 1005.4 |
| 20260506132221 | 11 | 126 | 4.8 | 12.9 | 0.03 | 1.30 | 0.00 | 99 | 1005.4 |
| 20260506131651 | 11 | 158 | 4.8 | 12.9 | 0.03 | 1.30 | 0.00 | 99 | 1005.3 |
| 20260506131121 | 11 | 137 | 4.8 | 12.9 | 0.03 | 1.30 | 0.00 | 99 | 1005.2 |
| 20260506130551 | 11 | 171 | 8.0 | 16.1 | 0.03 | 1.30 | 0.00 | 99 | 1005.2 |
| 20260506130021 | 11 | 193 | 9.7 | 22.5 | 0.03 | 1.30 | 0.00 | 99 | 1005.1 |
| 20260506125451 | 11 | 158 | 6.4 | 16.1 | 0.03 | 1.30 | 0.00 | 99 | 1005.1 |
| 20260506124921 | 11 | 181 | 8.0 | 12.9 | 0.03 | 1.30 | 0.00 | 99 | 1005.1 |
| 20260506124351 | 11 | 118 | 6.4 | 12.9 | 0.03 | 1.30 | 0.00 | 99 | 1005.0 |
| 20260506123821 | 11 | 184 | 4.8 | 9.7 | 0.03 | 1.30 | 0.00 | 99 | 1005.0 |
| 20260506123251 | 11 | 189 | 4.8 | 12.9 | 0.00 | 1.19 | 0.00 | 99 | 1005.0 |
| 20260506122721 | 11 | 203 | 3.2 | 11.3 | 0.00 | 1.19 | 0.00 | 99 | 1005.0 |
| 20260506122151 | 11 | 189 | 4.8 | 8.0 | 0.00 | 1.19 | 0.00 | 99 | 1005.0 |
| 20260506121621 | 12 | 197 | 4.8 | 6.4 | 0.00 | 1.19 | 0.00 | 99 | 1004.9 |
| 20260506121051 | 12 | 179 | 3.2 | 9.7 | 0.03 | 1.19 | 0.00 | 99 | 1004.9 |
| 20260506120521 | 12 | 158 | 3.2 | 3.2 | 0.03 | 1.19 | 0.00 | 99 | 1004.8 |
| 20260506115951 | 12 | 218 | 6.4 | 19.3 | 0.03 | 1.19 | 0.00 | 99 | 1004.8 |
| 20260506115421 | 12 | 308 | 6.4 | 12.9 | 0.03 | 1.19 | 0.00 | 99 | 1004.8 |
| 20260506114851 | 12 | 181 | 3.2 | 4.8 | 0.03 | 1.19 | 0.00 | 99 | 1004.8 |
| 20260506114321 | 11 | 331 | 4.8 | 11.3 | 0.03 | 1.19 | 0.00 | 99 | 1004.7 |
| 20260506113751 | 11 | 191 | 4.8 | 8.0 | 0.03 | 1.19 | 0.00 | 99 | 1004.7 |
| 20260506113221 | 11 | 228 | 3.2 | 4.8 | 0.03 | 1.19 | 0.00 | 99 | 1004.7 |
| 20260506112651 | 12 | 186 | 6.4 | 9.7 | 0.03 | 1.19 | 0.00 | 99 | 1004.7 |
| 20260506112121 | 12 | 182 | 4.8 | 6.4 | 0.03 | 1.19 | 0.00 | 99 | 1004.7 |
| 20260506111551 | 12 | 199 | 3.2 | 4.8 | 0.03 | 1.19 | 0.00 | 99 | 1004.5 |
| 20260506111021 | 12 | 198 | 3.2 | 9.7 | 0.00 | 1.19 | 0.00 | 99 | 1004.5 |
| 20260506110451 | 12 | 247 | 3.2 | 8.0 | 0.00 | 1.19 | 0.00 | 99 | 1004.4 |
| 20260506105921 | 12 | 340 | 4.8 | 12.9 | 0.03 | 1.19 | 0.00 | 99 | 1004.4 |
| 20260506105351 | 12 | 190 | 4.8 | 12.9 | 0.03 | 1.19 | 0.00 | 99 | 1004.4 |
| 20260506104822 | 12 | 208 | 8.0 | 17.7 | 0.03 | 1.19 | 0.00 | 99 | 1004.4 |
| 20260506104251 | 12 | 180 | 4.8 | 11.3 | 0.03 | 1.19 | 0.00 | 99 | 1004.4 |
| 20260506103721 | 12 | 304 | 4.8 | 11.3 | 0.03 | 1.19 | 0.00 | 99 | 1004.4 |
| 20260506103151 | 12 | 186 | 6.4 | 16.1 | 0.03 | 1.19 | 0.00 | 99 | 1004.4 |
| 20260506102621 | 12 | 181 | 4.8 | 6.4 | 0.03 | 1.19 | 0.00 | 99 | 1004.3 |
| 20260506102051 | 12 | 202 | 6.4 | 16.1 | 0.03 | 1.19 | 0.00 | 99 | 1004.3 |
| 20260506101522 | 12 | 159 | 6.4 | 14.5 | 0.03 | 1.19 | 0.00 | 99 | 1004.1 |
| 20260506100951 | 12 | 84 | 4.8 | 11.3 | 0.03 | 1.19 | 0.00 | 99 | 1004.1 |
| 20260506100421 | 12 | 195 | 4.8 | 9.7 | 0.03 | 1.19 | 0.00 | 99 | 1004.0 |
| 20260506095851 | 12 | 208 | 4.8 | 9.7 | 0.00 | 1.19 | 0.00 | 99 | 1004.0 |
| 20260506095321 | 12 | 135 | 8.0 | 14.5 | 0.00 | 1.19 | 0.00 | 99 | 1004.0 |
| 20260506094751 | 12 | 183 | 1.6 | 3.2 | 0.03 | 1.19 | 0.00 | 99 | 1004.0 |
| 20260506094222 | 12 | 285 | 3.2 | 4.8 | 0.03 | 1.19 | 0.00 | 99 | 1003.9 |
| 20260506093651 | 12 | 157 | 3.2 | 6.4 | 0.03 | 1.19 | 0.00 | 99 | 1003.9 |
| 20260506093121 | 12 | 117 | 6.4 | 11.3 | 0.03 | 1.19 | 0.00 | 99 | 1003.9 |
| 20260506092551 | 12 | 132 | 8.0 | 11.3 | 0.03 | 1.19 | 0.00 | 99 | 1003.9 |
| 20260506092021 | 12 | 234 | 6.4 | 16.1 | 0.03 | 1.19 | 0.00 | 99 | 1003.9 |
| 20260506091451 | 12 | 95 | 11.3 | 20.9 | 0.03 | 1.19 | 0.00 | 99 | 1003.8 |
| 20260506090921 | 12 | 18 | 8.0 | 12.9 | 0.03 | 1.19 | 0.00 | 99 | 1003.8 |
| 20260506090351 | 12 | 192 | 3.2 | 9.7 | 0.03 | 1.19 | 0.00 | 99 | 1003.8 |
| 20260506085821 | 12 | 109 | 1.6 | 4.8 | 0.03 | 1.19 | 0.00 | 99 | 1003.8 |
| 20260506085251 | 11 | 196 | 4.8 | 12.9 | 0.05 | 1.19 | 0.00 | 99 | 1003.8 |
| 20260506084721 | 11 | 284 | 4.8 | 8.0 | 0.03 | 1.19 | 0.00 | 99 | 1003.8 |
| 20260506084151 | 11 | 113 | 3.2 | 9.7 | 0.03 | 1.19 | 0.00 | 99 | 1003.8 |
| 20260506083621 | 11 | 76 | 3.2 | 19.3 | 0.03 | 1.19 | 0.00 | 99 | 1003.7 |
| 20260506083051 | 11 | 150 | 3.2 | 3.2 | 0.03 | 1.19 | 0.00 | 99 | 1003.6 |
| 20260506082521 | 11 | 148 | 1.6 | 3.2 | 0.03 | 1.19 | 0.00 | 99 | 1003.6 |
| 20260506081951 | 11 | 149 | 3.2 | 6.4 | 0.03 | 1.19 | 0.00 | 99 | 1003.5 |
| 20260506081421 | 11 | 87 | 3.2 | 6.4 | 0.03 | 1.19 | 0.00 | 99 | 1003.5 |
| 20260506080852 | 11 | 161 | 1.6 | 1.6 | 0.03 | 1.19 | 0.00 | 99 | 1003.4 |
| 20260506080321 | 11 | 99 | 1.6 | 6.4 | 0.03 | 1.19 | 0.00 | 99 | 1003.4 |
| 20260506073022 | 11 | 195 | 1.6 | 3.2 | 0.03 | 1.09 | 0.00 | 99 | 1003.3 |
| 20260506072452 | 11 | 153 | 1.6 | 6.4 | 0.03 | 1.09 | 0.00 | 99 | 1003.2 |
| 20260506071921 | 11 | 197 | 3.2 | 6.4 | 0.03 | 1.09 | 0.00 | 99 | 1003.2 |
| 20260506071351 | 11 | 226 | 0.0 | 1.6 | 0.05 | 1.09 | 0.00 | 99 | 1003.2 |
| 20260506070822 | 11 | 223 | 3.2 | 8.0 | 0.05 | 1.09 | 0.00 | 99 | 1003.2 |
| 20260506070252 | 11 | 236 | 1.6 | 3.2 | 0.05 | 1.09 | 0.00 | 99 | 1003.2 |
| 20260506062421 | 11 | 120 | 0.0 | 4.8 | 0.05 | 1.09 | 0.00 | 99 | 1003.2 |
| 20260506061851 | 11 | 261 | 4.8 | 8.0 | 0.05 | 1.09 | 0.00 | 99 | 1003.2 |
| 20260506061321 | 11 | 189 | 0.0 | 1.6 | 0.03 | 1.09 | 0.00 | 99 | 1003.2 |
| 20260506060751 | 11 | 195 | 0.0 | 0.0 | 0.03 | 1.09 | 0.00 | 99 | 1003.2 |
| 20260506060222 | 11 | 187 | 0.0 | 3.2 | 0.03 | 1.09 | 0.00 | 99 | 1003.2 |
| 20260506051252 | 11 | 176 | 1.6 | 3.2 | 0.03 | 1.09 | 0.00 | 99 | 1003.2 |
| 20260506050721 | 11 | 165 | 1.6 | 1.6 | 0.03 | 1.09 | 0.00 | 99 | 1003.2 |
| 20260506050151 | 11 | 173 | 1.6 | 3.2 | 0.05 | 1.09 | 0.00 | 99 | 1003.2 |
| 20260506045051 | 10 | 194 | 0.0 | 0.0 | 0.05 | 1.09 | 0.00 | 99 | 1003.2 |
| 20260506044522 | 10 | 205 | 1.6 | 1.6 | 0.03 | 0.99 | 0.00 | 99 | 1003.2 |
| 20260506043951 | 10 | 205 | 0.0 | 0.0 | 0.03 | 0.99 | 0.00 | 99 | 1003.1 |
| 20260506043421 | 10 | 172 | 0.0 | 1.6 | 0.03 | 0.99 | 0.00 | 99 | 1003.1 |
| 20260506042851 | 10 | 205 | 1.6 | 1.6 | 0.05 | 0.99 | 0.00 | 99 | 1003.1 |
| 20260506042321 | 10 | 165 | 0.0 | 1.6 | 0.05 | 0.99 | 0.00 | 99 | 1003.1 |
| 20260506041751 | 11 | 165 | 1.6 | 4.8 | 0.05 | 0.99 | 0.00 | 99 | 1003.1 |
| 20260506041222 | 11 | 328 | 0.0 | 1.6 | 0.05 | 0.99 | 0.00 | 99 | 1003.1 |
| 20260506040651 | 11 | 312 | 1.6 | 4.8 | 0.05 | 0.99 | 0.00 | 99 | 1003.1 |
| 20260506040121 | 11 | 318 | 1.6 | 3.2 | 0.03 | 0.99 | 0.00 | 99 | 1003.1 |
| 20260506035551 | 11 | 216 | 3.2 | 9.7 | 0.05 | 0.99 | 0.00 | 99 | 1003.1 |
| 20260506035021 | 11 | 259 | 4.8 | 16.1 | 0.05 | 0.99 | 0.00 | 99 | 1003.1 |
| 20260506034451 | 11 | 84 | 1.6 | 3.2 | 0.05 | 0.99 | 0.00 | 99 | 1003.2 |
| 20260506033921 | 11 | 166 | 1.6 | 3.2 | 0.05 | 0.99 | 0.00 | 99 | 1003.2 |
| 20260506033351 | 11 | 173 | 1.6 | 3.2 | 0.03 | 0.99 | 0.00 | 99 | 1003.2 |
| 20260506032822 | 11 | 81 | 1.6 | 3.2 | 0.05 | 0.99 | 0.00 | 99 | 1003.2 |
| 20260506032251 | 11 | 171 | 3.2 | 4.8 | 0.05 | 0.99 | 0.00 | 99 | 1003.2 |
| 20260506031721 | 11 | 143 | 3.2 | 4.8 | 0.05 | 0.99 | 0.00 | 99 | 1003.3 |
| 20260506031151 | 11 | 171 | 3.2 | 6.4 | 0.05 | 0.99 | 0.00 | 99 | 1003.4 |
| 20260506030621 | 11 | 187 | 1.6 | 3.2 | 0.05 | 0.99 | 0.00 | 99 | 1003.5 |
| 20260506030051 | 11 | 167 | 1.6 | 3.2 | 0.05 | 0.99 | 0.00 | 99 | 1003.5 |
| 20260506025521 | 11 | 232 | 1.6 | 3.2 | 0.05 | 0.94 | 0.00 | 99 | 1003.7 |
| 20260506024951 | 11 | 165 | 1.6 | 3.2 | 0.05 | 0.94 | 0.00 | 99 | 1003.7 |
| 20260506024421 | 11 | 158 | 1.6 | 3.2 | 0.05 | 0.94 | 0.00 | 99 | 1003.7 |
| 20260506023851 | 11 | 171 | 1.6 | 3.2 | 0.05 | 0.94 | 0.00 | 99 | 1003.7 |
| 20260506023322 | 11 | 167 | 1.6 | 3.2 | 0.05 | 0.94 | 0.00 | 99 | 1003.7 |
| 20260506022751 | 11 | 169 | 1.6 | 3.2 | 0.05 | 0.91 | 0.00 | 99 | 1003.7 |
| 20260506022221 | 11 | 173 | 1.6 | 3.2 | 0.05 | 0.91 | 0.00 | 99 | 1003.7 |
| 20260506021651 | 11 | 169 | 0.0 | 1.6 | 0.05 | 0.91 | 0.00 | 99 | 1003.7 |
| 20260506021121 | 11 | 241 | 0.0 | 0.0 | 0.05 | 0.91 | 0.00 | 99 | 1003.7 |
| 20260506020551 | 11 | 160 | 1.6 | 4.8 | 0.05 | 0.91 | 0.00 | 99 | 1003.7 |
| 20260506015551 | 11 | 194 | 1.6 | 1.6 | 0.05 | 0.89 | 0.00 | 99 | 1003.8 |
| 20260506015021 | 11 | 205 | 0.0 | 0.0 | 0.05 | 0.89 | 0.00 | 99 | 1003.9 |
| 20260506014451 | 11 | 179 | 0.0 | 0.0 | 0.05 | 0.89 | 0.00 | 99 | 1003.9 |
| 20260506013921 | 11 | 177 | 1.6 | 1.6 | 0.05 | 0.89 | 0.00 | 99 | 1003.9 |
| 20260506013351 | 11 | 210 | 1.6 | 1.6 | 0.08 | 0.89 | 0.00 | 99 | 1003.9 |
| 20260506012821 | 11 | 167 | 1.6 | 3.2 | 0.05 | 0.89 | 0.00 | 99 | 1004.0 |
| 20260506012251 | 11 | 180 | 1.6 | 3.2 | 0.05 | 0.89 | 0.00 | 99 | 1004.0 |
| 20260506011721 | 11 | 175 | 0.0 | 1.6 | 0.05 | 0.89 | 0.00 | 99 | 1004.0 |
| 20260506011151 | 11 | 173 | 1.6 | 1.6 | 0.05 | 0.89 | 0.00 | 99 | 1004.0 |
| 20260506010621 | 11 | 206 | 1.6 | 1.6 | 0.08 | 0.89 | 0.00 | 99 | 1004.0 |
| 20260506010052 | 11 | 163 | 1.6 | 3.2 | 0.05 | 0.84 | 0.00 | 99 | 1004.0 |
| 20260506005521 | 11 | 254 | 1.6 | 3.2 | 0.05 | 0.84 | 0.00 | 99 | 1004.0 |
| 20260506004951 | 11 | 169 | 1.6 | 1.6 | 0.05 | 0.84 | 0.00 | 99 | 1004.1 |
| 20260506004421 | 11 | 166 | 3.2 | 4.8 | 0.08 | 0.84 | 0.00 | 99 | 1004.2 |
| 20260506003851 | 11 | 186 | 1.6 | 1.6 | 0.08 | 0.84 | 0.00 | 99 | 1004.3 |
| 20260506003322 | 11 | 173 | 1.6 | 1.6 | 0.05 | 0.81 | 0.00 | 99 | 1004.3 |
| 20260506002751 | 11 | 167 | 1.6 | 3.2 | 0.05 | 0.81 | 0.00 | 99 | 1004.3 |
| 20260506002222 | 11 | 176 | 1.6 | 1.6 | 0.08 | 0.81 | 0.00 | 99 | 1004.3 |
| 20260506001652 | 11 | 186 | 1.6 | 3.2 | 0.08 | 0.81 | 0.00 | 99 | 1004.4 |
| 20260506001121 | 11 | 175 | 3.2 | 3.2 | 0.05 | 0.79 | 0.00 | 99 | 1004.5 |
| 20260506000551 | 11 | 172 | 1.6 | 1.6 | 0.05 | 0.79 | 0.00 | 99 | 1004.6 |
| 20260506000021 | 11 | 171 | 1.6 | 1.6 | 0.08 | 0.79 | 0.00 | 99 | 1004.6 |
| 20260505235451 | 11 | 167 | 0.0 | 1.6 | 0.08 | 0.79 | 0.00 | 99 | 1004.6 |
| 20260505234922 | 11 | 171 | 1.6 | 3.2 | 0.08 | 0.79 | 0.00 | 99 | 1004.6 |
| 20260505234351 | 11 | 165 | 1.6 | 3.2 | 0.08 | 0.79 | 0.00 | 99 | 1004.6 |
| 20260505233821 | 11 | 175 | 0.0 | 3.2 | 0.08 | 0.79 | 0.00 | 99 | 1004.6 |
| 20260505233251 | 11 | 169 | 1.6 | 1.6 | 0.08 | 0.79 | 0.00 | 99 | 1004.6 |
| 20260505232721 | 11 | 163 | 1.6 | 3.2 | 0.08 | 0.79 | 0.00 | 99 | 1004.7 |
| 20260505232151 | 11 | 191 | 1.6 | 3.2 | 0.08 | 0.76 | 0.00 | 99 | 1004.7 |
| 20260505231621 | 11 | 147 | 1.6 | 4.8 | 0.08 | 0.76 | 0.00 | 99 | 1004.8 |
| 20260505231052 | 11 | 173 | 1.6 | 3.2 | 0.08 | 0.76 | 0.00 | 99 | 1004.8 |
| 20260505230521 | 11 | 182 | 1.6 | 3.2 | 0.10 | 0.76 | 0.00 | 99 | 1004.8 |
| 20260505225951 | 11 | 185 | 1.6 | 3.2 | 0.08 | 0.71 | 0.00 | 99 | 1004.9 |
| 20260505225421 | 11 | 200 | 1.6 | 3.2 | 0.08 | 0.71 | 0.00 | 99 | 1004.9 |
| 20260505224852 | 11 | 182 | 1.6 | 3.2 | 0.10 | 0.71 | 0.00 | 99 | 1004.9 |
| 20260505224321 | 11 | 169 | 1.6 | 3.2 | 0.08 | 0.71 | 0.00 | 99 | 1004.9 |
| 20260505223751 | 11 | 172 | 3.2 | 4.8 | 0.08 | 0.71 | 0.00 | 99 | 1004.9 |
| 20260505223221 | 11 | 205 | 3.2 | 6.4 | 0.10 | 0.71 | 0.00 | 99 | 1004.9 |
| 20260505222651 | 11 | 171 | 3.2 | 4.8 | 0.10 | 0.71 | 0.00 | 99 | 1004.9 |
| 20260505222121 | 11 | 169 | 3.2 | 4.8 | 0.08 | 0.69 | 0.00 | 99 | 1005.0 |
| 20260505221551 | 11 | 209 | 1.6 | 3.2 | 0.10 | 0.69 | 0.00 | 99 | 1004.9 |
| 20260505221021 | 11 | 177 | 1.6 | 3.2 | 0.10 | 0.69 | 0.00 | 99 | 1005.0 |
| 20260505220451 | 11 | 181 | 3.2 | 4.8 | 0.08 | 0.66 | 0.00 | 99 | 1005.1 |
| 20260505215921 | 11 | 192 | 3.2 | 4.8 | 0.10 | 0.66 | 0.00 | 99 | 1005.1 |
| 20260505215351 | 11 | 186 | 1.6 | 3.2 | 0.10 | 0.66 | 0.00 | 99 | 1005.1 |
| 20260505214821 | 11 | 169 | 1.6 | 3.2 | 0.10 | 0.61 | 0.00 | 99 | 1005.1 |
| 20260505214251 | 12 | 177 | 1.6 | 6.4 | 0.10 | 0.61 | 0.00 | 99 | 1005.2 |
| 20260505213721 | 12 | 206 | 3.2 | 4.8 | 0.13 | 0.61 | 0.00 | 99 | 1005.3 |
| 20260505213151 | 12 | 177 | 3.2 | 4.8 | 0.10 | 0.61 | 0.00 | 99 | 1005.3 |
| 20260505212621 | 12 | 185 | 1.6 | 3.2 | 0.10 | 0.61 | 0.00 | 99 | 1005.3 |
| 20260505212051 | 12 | 168 | 1.6 | 3.2 | 0.13 | 0.61 | 0.00 | 99 | 1005.3 |
| 20260505211521 | 12 | 182 | 1.6 | 6.4 | 0.10 | 0.58 | 0.00 | 99 | 1005.3 |
| 20260505210951 | 12 | 181 | 3.2 | 6.4 | 0.13 | 0.58 | 0.00 | 99 | 1005.3 |
| 20260505210421 | 12 | 175 | 3.2 | 11.3 | 0.10 | 0.56 | 0.00 | 99 | 1005.3 |
| 20260505205851 | 12 | 178 | 1.6 | 4.8 | 0.13 | 0.56 | 0.00 | 99 | 1005.3 |
| 20260505205321 | 12 | 11 | 3.2 | 3.2 | 0.13 | 0.56 | 0.00 | 99 | 1005.3 |
| 20260505204751 | 12 | 331 | 3.2 | 3.2 | 0.10 | 0.51 | 0.00 | 99 | 1005.3 |
| 20260505204221 | 12 | 207 | 1.6 | 3.2 | 0.13 | 0.51 | 0.00 | 99 | 1005.3 |
| 20260505203651 | 12 | 180 | 3.2 | 8.0 | 0.10 | 0.51 | 0.00 | 99 | 1005.3 |
| 20260505203121 | 12 | 253 | 3.2 | 9.7 | 0.13 | 0.51 | 0.00 | 99 | 1005.3 |
| 20260505202551 | 12 | 268 | 4.8 | 8.0 | 0.13 | 0.51 | 0.00 | 99 | 1005.3 |
| 20260505202021 | 12 | 150 | 3.2 | 9.7 | 0.13 | 0.48 | 0.00 | 99 | 1005.3 |
| 20260505201451 | 12 | 197 | 4.8 | 14.5 | 0.13 | 0.48 | 0.00 | 99 | 1005.1 |
| 20260505200921 | 12 | 169 | 4.8 | 8.0 | 0.13 | 0.46 | 0.00 | 99 | 1005.1 |
| 20260505200351 | 12 | 180 | 6.4 | 12.9 | 0.13 | 0.46 | 0.00 | 99 | 1005.1 |
| 20260505195822 | 12 | 184 | 3.2 | 6.4 | 0.13 | 0.43 | 0.00 | 99 | 1005.1 |
| 20260505195251 | 12 | 258 | 4.8 | 9.7 | 0.13 | 0.43 | 0.00 | 99 | 1005.1 |
| 20260505194721 | 12 | 301 | 4.8 | 11.3 | 0.15 | 0.43 | 0.00 | 99 | 1005.1 |
| 20260505194151 | 12 | 183 | 4.8 | 6.4 | 0.13 | 0.41 | 0.00 | 99 | 1005.1 |
| 20260505193621 | 12 | 173 | 3.2 | 9.7 | 0.15 | 0.41 | 0.00 | 99 | 1005.1 |
| 20260505193052 | 12 | 192 | 4.8 | 11.3 | 0.15 | 0.41 | 0.00 | 99 | 1005.1 |
| 20260505192521 | 13 | 310 | 1.6 | 3.2 | 0.15 | 0.41 | 0.00 | 99 | 1005.0 |
| 20260505191951 | 13 | 174 | 1.6 | 3.2 | 0.15 | 0.38 | 0.00 | 99 | 1005.0 |
| 20260505191421 | 13 | 169 | 3.2 | 4.8 | 0.15 | 0.36 | 0.00 | 99 | 1005.0 |
| 20260505190851 | 13 | 273 | 3.2 | 8.0 | 0.15 | 0.36 | 0.00 | 99 | 1005.0 |
| 20260505190321 | 13 | 188 | 3.2 | 6.4 | 0.18 | 0.36 | 0.00 | 99 | 1005.0 |
| 20260505185751 | 13 | 244 | 1.6 | 3.2 | 0.18 | 0.33 | 0.00 | 99 | 1005.0 |
| 20260505185221 | 13 | 296 | 1.6 | 1.6 | 0.20 | 0.33 | 0.00 | 99 | 1005.0 |
| 20260505184652 | 13 | 182 | 3.2 | 3.2 | 0.18 | 0.30 | 0.00 | 99 | 1005.0 |
| 20260505184121 | 13 | 76 | 3.2 | 6.4 | 0.18 | 0.28 | 0.00 | 99 | 1005.0 |
| 20260505183551 | 13 | 178 | 3.2 | 4.8 | 0.18 | 0.28 | 0.00 | 99 | 1005.0 |
| 20260505183021 | 13 | 358 | 3.2 | 6.4 | 0.18 | 0.25 | 0.00 | 99 | 1005.1 |
| 20260505182451 | 13 | 348 | 4.8 | 11.3 | 0.18 | 0.25 | 0.00 | 99 | 1005.1 |
| 20260505181921 | 13 | 183 | 3.2 | 9.7 | 0.18 | 0.23 | 0.00 | 99 | 1005.1 |
| 20260505181351 | 13 | 151 | 8.0 | 24.1 | 0.15 | 0.20 | 0.00 | 99 | 1005.1 |
| 20260505180821 | 13 | 298 | 3.2 | 9.7 | 0.15 | 0.20 | 0.00 | 99 | 1005.1 |
| 20260505180251 | 13 | 191 | 1.6 | 6.4 | 0.13 | 0.18 | 0.00 | 99 | 1005.1 |
| 20260505175721 | 13 | 111 | 4.8 | 12.9 | 0.13 | 0.15 | 0.00 | 99 | 1005.1 |
| 20260505175152 | 13 | 324 | 3.2 | 11.3 | 0.10 | 0.13 | 0.00 | 99 | 1005.1 |
| 20260505174621 | 13 | 305 | 3.2 | 9.7 | 0.10 | 0.13 | 0.00 | 99 | 1005.1 |
| 20260505174051 | 14 | 147 | 4.8 | 8.0 | 0.08 | 0.10 | 0.00 | 99 | 1005.1 |
| 20260505173521 | 14 | 290 | 3.2 | 6.4 | 0.08 | 0.10 | 0.00 | 99 | 1005.1 |
| 20260505172951 | 14 | 290 | 6.4 | 14.5 | 0.05 | 0.08 | 0.00 | 99 | 1005.0 |
| 20260505172422 | 14 | 321 | 6.4 | 12.9 | 0.05 | 0.08 | 0.00 | 99 | 1005.0 |
| 20260505171852 | 15 | 288 | 4.8 | 11.3 | 0.03 | 0.05 | 0.00 | 99 | 1005.0 |
| 20260505171321 | 15 | 284 | 11.3 | 17.7 | 0.03 | 0.05 | 0.00 | 99 | 1005.0 |
| 20260505170751 | 15 | 319 | 6.4 | 11.3 | 0.03 | 0.05 | 0.00 | 99 | 1005.0 |
| 20260505170221 | 15 | 157 | 4.8 | 8.0 | 0.00 | 0.03 | 0.00 | 99 | 1005.0 |
| 20260505165651 | 15 | 119 | 4.8 | 11.3 | 0.00 | 0.03 | 0.00 | 99 | 1005.0 |
| 20260505165121 | 15 | 182 | 4.8 | 8.0 | 0.00 | 0.05 | 0.00 | 99 | 1005.0 |
| 20260505164551 | 15 | 326 | 6.4 | 16.1 | 0.00 | 0.05 | 0.00 | 99 | 1005.0 |
| 20260505164022 | 15 | 287 | 12.9 | 24.1 | 0.00 | 0.05 | 0.00 | 99 | 1005.1 |
| 20260505163451 | 15 | 315 | 9.7 | 14.5 | 0.00 | 0.05 | 0.00 | 99 | 1005.1 |
| 20260505162921 | 15 | 331 | 3.2 | 8.0 | 0.00 | 0.05 | 0.00 | 99 | 1005.1 |
| 20260505162351 | 15 | 331 | 14.5 | 29.0 | 0.00 | 0.05 | 0.00 | 99 | 1005.1 |
| 20260505161822 | 16 | 189 | 6.4 | 11.3 | 0.00 | 0.05 | 0.00 | 99 | 1005.1 |
| 20260505161251 | 16 | 202 | 6.4 | 17.7 | 0.00 | 0.05 | 0.00 | 99 | 1005.1 |
| 20260505160722 | 16 | 205 | 12.9 | 24.1 | 0.00 | 0.05 | 0.00 | 99 | 1005.1 |
| 20260505160151 | 16 | 201 | 9.7 | 25.7 | 0.00 | 0.08 | 0.00 | 99 | 1005.1 |
| 20260505152851 | 16 | 187 | 3.2 | 4.8 | 0.00 | 0.13 | 0.00 | 99 | 1005.2 |
| 20260505152321 | 16 | 46 | 3.2 | 11.3 | 0.00 | 0.15 | 0.00 | 99 | 1005.3 |
| 20260505151751 | 16 | 211 | 3.2 | 9.7 | 0.00 | 0.18 | 0.00 | 99 | 1005.3 |
| 20260505151222 | 16 | 180 | 12.9 | 25.7 | 0.00 | 0.23 | 0.00 | 99 | 1005.3 |
| 20260505150651 | 16 | 218 | 9.7 | 14.5 | 0.00 | 0.25 | 0.00 | 99 | 1005.3 |
| 20260505150122 | 16 | 196 | 6.4 | 17.7 | 0.00 | 0.30 | 0.00 | 99 | 1005.3 |